Regional Weather Roundup
Issued by NWS

Home | Current Version | Previous Version | Graphics & Text | Print | Product List | Glossary On
Versions: 1 2 3 4 5 6 7 8 9 10 11 12 13 14 15 16 17 18 19 20 21 22 23 24 25 26 27 28 29 30 31 32 33 34 35 36 37 38 39 40 41 42 43 44 45 46 47 48 49 50
000
ASUS45 KPSR 300510
RWRAZ

ARIZONA HOURLY REGIONAL WEATHER ROUNDUP
NATIONAL WEATHER SERVICE PHOENIX AZ
1000 PM MST FRI MAY 29 2015

NOTE: FAIR INDICATES FEW OR NO CLOUDS BELOW 12,000 FEET WITH NO
SIGNIFICANT WEATHER AND/OR OBSTRUCTIONS TO VISIBILITY.

AZZ001>003-036-300600-
NORTHWEST ARIZONA

CITY           SKY/WX    TMP DP  RH WIND       PRES   REMARKS
KINGMAN        PTCLDY    72   8   8 S12       30.02R
$$

AZZ004>008-015-016-018-300600-
NORTH CENTRAL ARIZONA

CITY           SKY/WX    TMP DP  RH WIND       PRES   REMARKS
GRAND CANYON   PTCLDY    64  35  34 E6        30.25R
WILLIAMS       PTCLDY    61  34  36 S6        30.33R
PRESCOTT       CLEAR     66  28  24 S8        30.14R
FLAGSTAFF      PTCLDY    50  38  63 CALM      30.29R
PAYSON         CLEAR     68  25  19 CALM      30.16S
PAGE           PTCLDY    76  39  26 N5        30.12R
$$

AZZ009>014-017-300600-
NORTHEAST ARIZONA

CITY           SKY/WX    TMP DP  RH WIND       PRES   REMARKS
WINSLOW        PTCLDY    70  36  28 SE7       30.13R
SAINT JOHNS    CLEAR     61  28  28 CALM      30.18R
WINDOW ROCK    CLEAR     53  32  44 CALM      30.27R
SHOW LOW       CLEAR     57  28  33 E5        30.25R
$$

AZZ023-300600-
GREATER PHOENIX AREA

CITY           SKY/WX    TMP DP  RH WIND       PRES   REMARKS
PHOENIX        CLEAR     91  29  11 W3        29.83R
BUCKEYE        CLEAR     81  28  15 N6        29.84R
LUKE AFB       CLEAR     84  37  18 W3        29.82R
DEER VALLEY    CLEAR     85  25  11 CALM      29.85R
SCOTTSDALE     CLEAR     87  34  15 N3        29.87R
MESA-GATEWAY   CLEAR     84  32  15 CALM      29.87R
$$

AZZ027-028-300600-
SOUTHWEST MARICOPA COUNTY AND PINAL COUNTY

CITY           SKY/WX    TMP DP  RH WIND       PRES   REMARKS
CASA GRANDE    CLEAR     84  27  12 NW6       29.86R
GILA BEND      FAIR      84  31  15 SW8       29.82R
$$

AZZ503-504-507>509-300600-
SOUTHEAST ARIZONA

CITY           SKY/WX    TMP DP  RH WIND       PRES   REMARKS
TUCSON         CLEAR     86  26  11 NW8       29.95R
DAVIS-MONTHAN  CLEAR     83  28  13 VRB5      29.94R
NOGALES        CLEAR     72  23  16 E5        30.06R
SIERRA VISTA   CLEAR     76  17  11 W13       30.11R
DOUGLAS        PTCLDY    72  24  16 NW7       30.04R
SAFFORD        CLEAR     78  22  12 NW9       29.95R
$$

AZZ020-021-025-026-031-300600-
SOUTHWEST ARIZONA

CITY           SKY/WX    TMP DP  RH WIND       PRES   REMARKS
YUMA           PTCLDY    84  40  21 S5        29.81R
$$

CAZ031-033-041-043-047-048-061-300600-
SOUTHERN CALIFORNIA

CITY           SKY/WX    TMP DP  RH WIND       PRES   REMARKS
DOWNTOWN L.A.  CLEAR     61  56  83 CALM      29.92R
L.A. AIRPORT   CLOUDY    58  57  97 W6        29.93R
SAN DIEGO      MOCLDY    63  55  77 NW5       29.95R
BURBANK        CLEAR     66  56  70 SE5       29.91R
ONTARIO        MOCLDY    68  56  65 SW6       29.92R
RIVERSIDE      PTCLDY    68  56  65 W5        29.93R
PALM SPRINGS   PTCLDY    90  48  23 SW3       29.83R
EL CENTRO NAS  PTCLDY    82  38  20 SE8       29.80R
IMPERIAL       PTCLDY    86  38  18 SE8       29.77R
BLYTHE         PTCLDY    87  30  13 W6        29.81R
NEEDLES        PTCLDY    90  20   7 W6        29.83R
$$

NVZ020-UTZ003-300600-
SOUTHERN NEVADA-UTAH

CITY           SKY/WX    TMP DP  RH WIND       PRES   REMARKS
LAS VEGAS      PTCLDY    90  19   7 S13       29.85R
SALT LAKE CITY MOCLDY    64  45  49 S3        30.12R
$$

NMZ009-TXZ055-300600-
NEW MEXICO-WEST TEXAS

CITY           SKY/WX    TMP DP  RH WIND       PRES   REMARKS
ALBUQUERQUE    PTCLDY    71  30  21 NE5       30.17R
EL PASO        PTCLDY    83  21  10 NW3       29.98R
$$


........................KEY........................
SKY/WX - SKY CONDITION/WEATHER
TMP    - TEMPERATURE IN FAHRENHEIT
DP     - DEW POINT IN FAHRENHEIT
RH     - RELATIVE HUMIDITY IN PERCENT
WIND   - DIRECTION AND SPEED IN MILES PER HOUR (MPH)
VRB    - VARIABLE WIND DIRECTION
PRES   - MEAN SEA LEVEL PRESSURE IN INCHES OF MERCURY
         F - FALLING PRESSURE   R - RISING PRESSURE
         S - STEADY PRESSURE
VSB    - VISIBILITY IN MILES
HX     - HEAT INDEX IN FAHRENHEIT
WCI    - WIND CHILL INDEX IN FAHRENHEIT
TC     - TEMPERATURE IN CELSIUS WHICH IS ALSO KNOWN AS
         TEMPERATURE IN CENTIGRADE
AFB    - AIR FORCE BASE
         LUKE AFB IS LUKE AIR FORCE BASE
         DAVIS-MONTHAN IS DAVIS-MONTHAN AIR FORCE BASE
NAS    - NAVAL AIR STATION
         EL CENTRO NAS IS EL CENTRO NAVAL AIR STATION
N/A    - NOT AVAILABLE



USA.gov is the U.S. government's official web portal to all federal, state and local government web resources and services.